Location: Baili�vre
(50.0696°N, 4.2409°E)
Time: 07:29:09
(UTC+00:00)

SL-16 R/B - Pass Details

Date: 08 August 2020
Orbit: 843 x 845 km, 71.0° (Epoch: 26 September)

Event Time Altitude Azimuth Distance (km) Brightness Sun altitude
Rises 21:32:42 0° 331° (NNW) 3,417 7.1 -17.7°
Reaches altitude 10° 21:35:11 10° 334° (NNW) 2,478 5.9 -17.9°
Maximum altitude 21:40:52 69° 58° (ENE) 904 2.3 -18.4°
Enters shadow 21:43:31 32° 134° (SE) 1,411 2.8 -18.6°
